This is the latest recevied weather packets stored in our database for station/object W7TTE. If no packets are shown the sender has not sent any weather packets the latest 10 day(s).
| Time | Temp. | Humidity | Pressure | Rain* | Wind** | Luminosity | Snow |
|---|---|---|---|---|---|---|---|
| 1777350578 | 21.67° C | 27% | 1015.8 hPa | 0 mm | - | 0 W/m² | - |
| 1777350277 | 21.67° C | 27% | 1015.8 hPa | 0 mm | - | 0 W/m² | - |
| 1777349670 | 21.67° C | 27% | 1015.7 hPa | 0 mm | - | 0 W/m² | - |
| 1777349368 | 21.67° C | 27% | 1015.6 hPa | 0 mm | - | 0 W/m² | - |
| 1777349066 | 21.67° C | 26% | 1015.4 hPa | 0 mm | - | 0 W/m² | - |
| 1777348763 | 22.22° C | 26% | 1015.2 hPa | 0 mm | - | 0 W/m² | - |
| 1777348461 | 21.67° C | 27% | 1015.2 hPa | 0 mm | - | 0 W/m² | - |
| 1777348159 | 21.67° C | 26% | 1015 hPa | 0 mm | - | 0 W/m² | - |
| 1777347857 | 21.67° C | 27% | 1015.1 hPa | 0 mm | - | 0 W/m² | - |
| 1777347554 | 21.67° C | 26% | 1014.9 hPa | 0 mm | - | 0 W/m² | - |
| 1777347249 | 22.22° C | 26% | 1014.9 hPa | 0 mm | - | 0 W/m² | - |
| 1777346946 | 22.22° C | 26% | 1015 hPa | 0 mm | - | 0 W/m² | - |
| 1777346643 | 22.22° C | 26% | 1014.6 hPa | 0 mm | - | 0 W/m² | - |
| 1777346339 | 22.22° C | 26% | 1014.5 hPa | 0 mm | - | 0 W/m² | - |
| 1777346036 | 22.22° C | 26% | 1014.5 hPa | 0 mm | - | 0 W/m² | - |
| 1777345733 | 22.22° C | 25% | 1014.4 hPa | 0 mm | - | 0 W/m² | - |
| 1777345127 | 22.78° C | 25% | 1014.3 hPa | 0 mm | - | 0 W/m² | - |
| 1777344519 | 22.78° C | 24% | 1013.9 hPa | 0 mm | - | 0 W/m² | - |
| 1777343914 | 23.33° C | 23% | 1013.8 hPa | 0 mm | - | 0 W/m² | - |
| 1777343611 | 23.33° C | 23% | 1013.7 hPa | 0 mm | - | 0 W/m² | - |
| 1777343308 | 23.33° C | 23% | 1013.8 hPa | 0 mm | - | 0 W/m² | - |
| 1777342703 | 23.89° C | 22% | 1013.6 hPa | 0 mm | - | 1 W/m² | - |
| 1777342097 | 23.89° C | 23% | 1013.5 hPa | 0 mm | - | 4 W/m² | - |
| 1777341489 | 24.44° C | 22% | 1013.5 hPa | 0 mm | - | 10 W/m² | - |
| 1777339975 | 25.56° C | 21% | 1013.1 hPa | 0 mm | - | 25 W/m² | - |
* Rain latest hour (hover to see other rain measurements)
** Current wind speed in m/s (hover to see current wind gust speed)